Regional Weather Roundup
Issued by NWS

Home | Current Version | Previous Version | Graphics & Text | Print | Product List | Glossary On
Versions: 1 2 3 4 5 6 7 8 9 10 11 12 13 14 15 16 17 18 19 20 21 22 23 24 25 26 27 28 29 30 31 32 33 34 35 36 37 38 39 40 41 42 43 44 45 46 47 48 49 50
000
ASUS43 KOAX 240810
RWRNE

WEATHER ROUNDUP FOR NEBRASKA
NATIONAL WEATHER SERVICE OMAHA NE
300 AM CDT FRI MAR 24 2017

NOTES: SATELLITE DATA IS BEING USED TO AUGMENT CLOUD COVER ABOVE
       12000 FEET.
       "FAIR" INDICATES FEW OR NO CLOUDS BELOW 12,000 FEET WITH NO
       SIGNIFICANT WEATHER AND/OR OBSTRUCTIONS TO VISIBILITY.

  * THESE STATIONS DO NOT REPORT WEATHER SUCH AS RAIN...SNOW OR FOG.

NEZ001>004-019>022-054>056-240900-
NEBRASKA PANHANDLE

CITY           SKY/WX    TMP DP  RH WIND       PRES   REMARKS
SCOTTSBLUFF    CLOUDY    42  38  85 NE16      29.91R
ALLIANCE       CLOUDY    41  38  89 N18       29.88R
CHADRON        CLOUDY    42  37  82 N14       29.94S
KIMBALL        RAIN      39  39 100 N21G28    29.87R WCI  29
SIDNEY         CLOUDY    42  39  89 N21G30    29.84R
$$

NEZ057>060-069>072-079>082-240900-
SOUTHWEST NEBRASKA

CITY           SKY/WX    TMP DP  RH WIND       PRES   REMARKS
NORTH PLATTE   LGT RAIN  52  49  89 NE16      29.78S FOG
IMPERIAL       HVY RAIN  48  46  93 NE18      29.76R FOG
LEXINGTON      LGT RAIN  53  50  89 E17       29.75R
OGALLALA       DRIZZLE   47  44  91 NE17      29.79R
$$

NEZ005>010-023>029-035>040-094-240900-
NORTH CENTRAL NEBRASKA

CITY           SKY/WX    TMP DP  RH WIND       PRES   REMARKS
VALENTINE      CLOUDY    43  38  82 N14G21    29.87R
AINSWORTH      CLOUDY    45  45 100 N14       29.85R
BROKEN BOW     CLOUDY    51  48  89 N17G24    29.77R
O`NEILL        LGT RAIN  47  46  99 N12       29.82F
ORD            LGT RAIN  52  50  93 N12       29.74F
THEDFORD       RAIN      45  43  94 N15G21    29.83F
$$

NEZ041-046>049-061>064-073>077-083>087-240900-
SOUTH CENTRAL NEBRASKA

CITY           SKY/WX    TMP DP  RH WIND       PRES   REMARKS
GRAND ISLAND   LGT RAIN  55  54  96 NE16      29.76R
AURORA         RAIN      55  53  95 N13G18    29.76R
HASTINGS       LGT RAIN  56  53  90 N10       29.76R
HEBRON         CLOUDY    69  47  45 S13G20    29.71R
HOLDREGE       LGT RAIN  53  52  94 NE16      29.74F
KEARNEY *      CLOUDY    54  50  87 NE8       29.76R
YORK           LGT RAIN  57  55  94 N8        29.75R
$$

NEZ011>018-030>034-042>045-240900-
NORTHEAST NEBRASKA

CITY           SKY/WX    TMP DP  RH WIND       PRES   REMARKS
NORFOLK        LGT RAIN  53  51  93 N5        29.77R
ALBION         LGT RAIN  55  53  92 N6        29.76F
BLAIR          HVY RAIN  58  55  88 N15G21    29.74R
FREMONT        LGT RAIN  55  54  95 NE7       29.75R
TEKAMAH        LGT RAIN  52  50  93 N13       29.74F
WAYNE          LGT RAIN  49  49  99 NE5       29.74F
$$

NEZ050>053-065>068-078-088>093-240900-
SOUTHEAST NEBRASKA

CITY           SKY/WX    TMP DP  RH WIND       PRES   REMARKS
LINCOLN        CLOUDY    66  51  58 W5        29.72R
OMAHA EPPLEY   CLOUDY    65  52  62 N3        29.73R
BEATRICE       LGT RAIN  69  50  50 S17G23    29.71R
FALLS CITY     CLOUDY    66  49  54 S15       29.74S
NEBRASKA CITY  CLOUDY    62  44  51 S9        29.72S
PLATTSMOUTH    CLOUDY    66  46  48 S12       29.72R
$$

NEZ044-045-051>053-067-240900-
OMAHA AREA

CITY           SKY/WX    TMP DP  RH WIND       PRES   REMARKS
OMAHA EPPLEY   CLOUDY    65  52  62 N3        29.73R
BLAIR          HVY RAIN  58  55  88 N15G21    29.74R
FREMONT        LGT RAIN  55  54  95 NE7       29.75R
MILLARD        CLOUDY    69  53  55 NW6       29.73R
OFFUTT AFB     CLOUDY    61  51  70 E3        29.71R
PLATTSMOUTH    CLOUDY    66  46  48 S12       29.72R
WAHOO          LGT RAIN  57  55  91 N9        29.74R
$$




USA.gov is the U.S. government's official web portal to all federal, state and local government web resources and services.